Location: Newark
(54.3386°S, 169.8415°W)
Time: 17:51:25
(UTC+00:00)

Envisat - Visible Passes

Search period start: 17 October 2019 00:00
Search period end: 27 October 2019 00:00
Orbit: 764 x 766 km, 98.1° (Epoch: 17 October)

Date Brightness Start Highest point End Pass type
(mag) Time Alt. Az. Time Alt. Az. Time Alt. Az.
17 Oct 4.0 07:12:55 10° S 07:17:56 52° WSW 07:22:54 10° NW visible
17 Oct 6.2 08:53:39 10° SSW 08:55:54 13° SW 08:58:10 10° WSW visible
17 Oct 6.1 15:18:40 10° E 15:21:59 18° SE 15:25:17 10° S visible
18 Oct 3.1 06:36:02 10° SSE 06:41:14 87° ENE 06:46:23 10° NNW visible
18 Oct 5.7 08:15:53 10° S 08:19:40 21° SW 08:23:27 10° W visible
18 Oct 6.6 14:44:41 10° SE 14:45:49 11° SE 14:46:56 10° SSE visible
19 Oct 4.8 07:38:37 10° S 07:43:17 35° WSW 07:47:54 10° NW visible
20 Oct 3.7 07:01:36 10° S 07:06:43 62° WSW 07:11:46 10° NNW visible
20 Oct 6.1 08:41:59 10° SSW 08:44:49 15° SW 08:47:38 10° W visible
20 Oct 6.2 15:08:00 10° E 15:10:52 15° SE 15:13:45 10° SSE visible
21 Oct 5.5 08:04:26 10° S 08:08:32 24° SW 08:12:37 10° WNW visible
22 Oct 4.5 07:27:16 10° S 07:32:06 41° WSW 07:36:53 10° NW visible
22 Oct 6.5 09:08:52 10° SSW 09:09:52 11° SW 09:10:52 10° SW visible
23 Oct 3.4 06:50:17 10° SSE 06:55:29 74° WSW 07:00:35 10° NNW visible
23 Oct 6.0 08:30:26 10° S 08:33:43 17° SW 08:36:59 10° W visible
23 Oct 6.4 14:57:28 10° ESE 14:59:47 13° SE 15:02:06 10° SSE visible
24 Oct 5.3 07:53:02 10° S 07:57:23 28° WSW 08:01:43 10° WNW visible
25 Oct 4.2 07:15:55 10° S 07:20:54 49° WSW 07:25:49 10° NW visible
25 Oct 6.3 08:56:49 10° SSW 08:58:48 12° SW 09:00:48 10° WSW visible
26 Oct 5.9 08:18:56 10° S 08:22:36 20° SW 08:26:14 10° W visible
26 Oct 6.6 14:47:09 10° ESE 14:48:42 11° SE 14:50:16 10° SSE visible
